STARLINK-1284, 45390

Orbit data source: Space-Track

STARLINK-1284, 45390 is a payload satellite owned by SpaceX/Seattle (US) in LEO that was launched on Wed, 18 Mar 2020 UTC via an FALCON 9 launch vehicle from the Air Force Eastern Test Range (AFETR). Payload-class satellites include a variety of spacecraft equipped with specific instruments for various scientific and technological missions. These include communications satellites like Starlink; space stations such as the ISS; scientific satellites like the Hubble; Earth observation satellites from companies like Planet Labs, Umbra, and HawkEye 360; GPS; miniature CubeSats for education and research; and military/defense satellites.

Loading next visibility...
Identifier
45390, 2020-019AG
Orbit
LEO
Country
Flag of USUS
Related business
Manufacturer
SpaceX/Seattle
Mission
Partially operational Commercial Communications
Bus & Motor
STARLINK, Unknown motor
Mass
260 kg wet, ~248 kg dry
Launch date (UTC)
2020-03-18 (6 years ago)
Launch vehicle
FALCON 9
Launch site
Air Force Eastern Test Range (AFETR)
Object type
Payload
Rocket body
Debris
Shape & HBR
Box + 1 Pan, 10.1 m
Radar Cross Section
13.562 m², Large (>1 m²)

Expand to show TLE details & history
Last TLE update: 10 hours ago

TLE from 10 hours ago
0 STARLINK-1284
1 45390U 20019AG  26196.31480573  .00042353  00000-0  28795-3 0  9999
2 45390  53.0385 225.0394 0004241  67.9724 292.1745 15.74503818350200
Epoch: 2026-07-15T07:33Z
TLE epoch observation values (Epoch: 2026-07-15T07:33:19.215Z)
Latitude
0.00004°
Longitude
178.53698°
Altitude
345.872 km
Speed
7.703 km/s
True Right ascension
15h 00m 09s
True Declination
0° 00' 00"
Sunlit
Object was in full shadow at epoch
Visualization orbit readout
Latitude
Unknown
Longitude
Unknown
Altitude
Unknown
Speed
Unknown
Apparent Right ascension
Unknown
Apparent Declination
Unknown
Sunlit
N/A
Visualization observer readout
Local Sidereal Time
05:55:27
Azimuth
Unknown
Elevation
Unknown
Doppler factor
Unknown
Orbital elements
Apogee altitude
349.177 km
Perigee altitude
343.473 km
Semi-major axis
6,724.462 km
Eccentricity
0.00042
Inclination
53.0385°
RAAN
225.0394°
Arg. of periapsis
67.9724°
True anomaly
292.12949°
Mean anomaly
292.1745°
Eccentric anomaly
292.15199°
Mean motion
3.93602 °/min
Orbital period
91.46 mins
BSTAR
0.00028795
Loading maneuver chart data...
Computing Atmospheric mass density...

Documentation

Showing up to 5 results
|